Voltar ao catálogo

METEOR 2-11 DEB

AtivoPO
NORAD 43311·DEBRIS·🇷🇺 Russia

Lançado Jul 5, 1984 de Plesetsk Cosmodrome

Loading…

Próximas Passagens (próximas 24 horas)

TLE

EnvelhecendoSource: Space-Track

Época: Sep 9, 2026, 11:04 UTC

1 43311U 84072W   26252.46141595  .00001041  00000-0  69849-3 0  9990
2 43311  82.5316 309.4303 0025998 130.3667 229.9777 13.99753942270903

Acompanhe METEOR 2-11 DEB em tempo real com AllMySat

Download on the App Store